YAOGAN-21

Last updated on Mon Jul 07 2025 00:02:28 GMT+0000 (Coordinated Universal Time)

1 40143U 14053A 25187.62628197 .00005724 00000+0 24181-3 0 9995 2 40143 97.1983 237.5703 0010799 282.0354 77.9674 15.23571417602316
UTC large
Height (km)
Speed (km/s)
/
Latitude / Longitude
Inclination (degrees)
Orbital Period (minutes)
Azimuth
Elevation
Range (km)
Doppler Factor

Next 0 passes for location: London (51.5072 / 0.1276)

Sorry there are no passes over London.